Location: Chefe Valiua
(16.5342°S, 37.2214°E)
Time: 14:48:49
(UTC+00:00)

Envisat - Pass Details

Date: 18 June 2021
Orbit: 764 x 766 km, 98.1° (Epoch: 25 July)

Event Time Altitude Azimuth Distance (km) Brightness Sun altitude
Rises 02:16:13 0° 15° (NNE) 3,210 6.7 -23.6°
Reaches altitude 10° 02:18:30 10° 16° (NNE) 2,290 5.9 -23.0°
Maximum altitude 02:23:33 81° 102° (ESE) 779 3.0 -21.9°
Enters shadow 02:27:22 18° 188° (S) 1,811 4.7 -21.0°
